Location: Newark
(48.5667°N, 12.8167°E)
Time: 05:59:05
(UTC+00:00)

CAS-4B - Pass Details

Date: 18 November 2019
Orbit: 528 x 546 km, 43.0° (Epoch: 05 December)

Event Time Altitude Azimuth Distance (km) Brightness Sun altitude
Rises 05:42:34 0° 203° (SSW) 2,673 ? -6.5°
Reaches altitude 10° 05:46:02 10° 172° (S) 1,781 ? -6.0°
Maximum altitude 05:47:39 12° 148° (SSE) 1,648 ? -5.8°
Drops below altitude 10° 05:49:17 10° 125° (SE) 1,781 ? -5.5°
Sets 05:52:44 0° 94° (E) 2,670 ? -5.0°
